Regional Weather Roundup
Issued by NWS Upton, NY

Current Version | Previous Version | Text Only | Print | Product List | Glossary On
Versions: 1 2 3 4 5 6 7 8 9 10 11 12 13 14 15 16 17 18 19 20 21 22 23 24 25 26 27
000
ASUS41 KOKX 272004
RWROKX

REGIONAL WEATHER ROUNDUP
NATIONAL WEATHER SERVICE NEW YORK NY
400 PM EDT FRI MAY 27 2016

NOTE: "FAIR" INDICATES FEW OR NO CLOUDS BELOW 12,000 FEET WITH NO
SIGNIFICANT WEATHER AND/OR OBSTRUCTIONS TO VISIBILITY.

NYZ071-072-176-178-NJZ106-104-272100-
NEW YORK CITY METRO AREA


CITY           SKY/WX    TMP DP  RH WIND       PRES   REMARKS
CENTRAL PARK   MOSUNNY   79  62  56 S9G18     30.05F
LAGUARDIA APRT MOSUNNY   80  68  66 S13G21    30.03S
KENNEDY INTL   PTSUNNY   71  62  73 SE7       30.06F
NEWARK/LIBERTY PTSUNNY   81  64  56 E12       30.01S
BRNX BOT. GARD   N/A     79  63  57 S14       30.05R
TETERBORO      MOSUNNY   87  62  43 SE10      30.00S
$$

NYZ177-179-078>081-272100-
LONG ISLAND NEW YORK

CITY           SKY/WX    TMP DP  RH WIND       PRES   REMARKS
FARMINGDALE    SUNNY     74  63  68 S14       30.06F
ISLIP          MOSUNNY   71  61  70 S14       30.06F
SHIRLEY        SUNNY     71  61  70 S14       30.08F
RIVERHEAD        N/A     77  64  65 SW8       30.05F
WESTHAMPTON    SUNNY     70  60  70 SW13      30.09F
EAST HAMPTON   FAIR      67  59  74 S14       30.08F
MONTAUK POINT    N/A     65  59  81 S10G21    30.09F
$$

NYZ052-065-067-272100-
HUDSON VALLEY

CITY           SKY/WX    TMP DP  RH WIND       PRES   REMARKS
WHITE PLAINS   SUNNY     81  66  60 SE9       30.04S
NEWBURGH       LGT RAIN  73  72  94 E12       30.03F
MONTGOMERY     LGT RAIN  77  70  79 E3        30.02R
POUGHKEEPSIE   CLOUDY    80  67  64 S7        30.00S
ALBANY         PTSUNNY   85  65  51 S14       29.98F
$$

NJZ001-105-106-008-010-013-015-019>022-104-272100-
NEW JERSEY

CITY           SKY/WX    TMP DP  RH WIND       PRES   REMARKS
NEWARK/LIBERTY PTSUNNY   81  64  56 E12       30.01S
TETERBORO      MOSUNNY   87  62  43 SE10      30.00S
CALDWELL       CLOUDY    83  66  56 SE7       30.01S
MORRISTOWN     PTSUNNY   88  64  45 W9G15     30.01S
SOMERVILLE     PTSUNNY   89  67  47 S7        29.99S HX  92
SUSSEX         PTSUNNY   86  66  51 VRB7      30.02R
ANDOVER          N/A     86  64  47 SW6       30.03R
TRENTON        MOSUNNY   88  66  48 SW10G22   30.01S HX  90
MILLVILLE      SUNNY     83  66  56 S8        30.06S
ATLANTIC CITY  SUNNY     80  63  55 S13G22    30.06F
WRIGHTSTOWN    MOSUNNY   91  66  44 SW17      29.99F HX  93
TOMS RIVER     SUNNY     90  64  43 S14G22    30.03S HX  91
BELMAR         PTSUNNY   79  68  69 SE9       30.04F
$$

PAZ047>061-062-071-272100-
EASTERN PENNSYLVANIA

CITY           SKY/WX    TMP DP  RH WIND       PRES   REMARKS
PHILADELPHIA   MOSUNNY   89  64  43 SW13      30.04R HX  90
ALLENTOWN      MOSUNNY   89  66  46 SW13G21   30.02S HX  91
SCRANTON       SUNNY     88  63  43 W13       30.02S
$$

CTZ002-004>006-009-010-012-RIZ004-006-007-MAZ004-011-015-272100-
SOUTHERN NEW ENGLAND
 IN CT

CITY           SKY/WX    TMP DP  RH WIND       PRES   REMARKS
BRADLEY INTL   CLOUDY    88  64  44 S18       30.00F
HARTFORD       MOSUNNY   89  66  46 S13       30.01F HX  91
DANBURY        MOSUNNY   82  64  54 S10       30.04S
WTRBRY/OXFORD  MOSUNNY   82  63  51 SW12      30.07S
BRIDGEPORT     SUNNY     71  62  73 E8        30.04F
MERIDEN        SUNNY     86  64  47 SW12      30.03F
NEW HAVEN      SUNNY     78  63  59 SE8       30.05S
CHESTER        FAIR      79  64  61 S8G15     30.06F
GROTON         MOSUNNY   66  61  84 S8        30.06F
WILLIMANTIC    MOSUNNY   88  63  43 S14       30.03F

 IN RI

CITY           SKY/WX    TMP DP  RH WIND       PRES   REMARKS
PROVIDENCE     PTSUNNY   77  62  59 SE15      30.05F
BLOCK ISLAND   MOSUNNY   65  59  81 SW18G24   30.09F
WESTERLY       SUNNY     70  57  63 SW13      30.08F

 IN MA

CITY           SKY/WX    TMP DP  RH WIND       PRES   REMARKS
BOSTON         PTSUNNY   65  57  75 E8        30.05F
WORCESTER      PTSUNNY   82  62  50 S9        30.05F
WESTFIELD      MOSUNNY   88  64  44 S15       29.99F
PROVINCETOWN   CLOUDY    74  62  66 SW14      30.07F
NANTUCKET      MOSUNNY   65  58  78 SW14      30.11S
$$

ANZ330-335-338-340-345-350-353-355-272100-
COASTAL MARINE OBSERVATIONS


STATION/POSITION TIME  SKY/WX   TEMP    WIND        PRES    VSBY  WAVE
                                AIR SEA DIR/SP/G                  HT/PER
                 (UTC)          (F)     (DEG/KT/KT) (MB)    (MI)  (FT/S)
NY HARB ENTRANCE 1950            63 61  180/ 16/ 17 1016.8          3/ 4
20S FIRE ISLAND  1850            61 60  190/ 16/ 17 1018.1          3/ 4
GREAT SOUTH BAY  1900            63 69  210/  8/ 12   N/A
23 SSW MONTAUK P 1950            60 58  210/ 14/ 16 1018.4          3/ 6
15 E BARNEGAT LI 1922               60                N/A           4/ 4
HUDSON CANYON    1850            62 57              1019.8          3/ 5
KINGS POINT      1900            74 61              1016.8
EXECUTION ROCKS  NOT AVBL
CENTRAL LI SOUND 1900            66     140/ 10/ 12   N/A           1
EASTERN LI SOUND 1900            58 53  150/  8/ 12   N/A
ROBBINS REEF     1900            71     160/ 14/ 15 1016.1
$$


>>>>>>>>>>>>>>>>>>>>>>>>>>>> KEY <<<<<<<<<<<<<<<<<<<<<<<<<<<
>                                                          <
>     SKY/WX - SKY CONDITION/PRESENT WEATHER               <
>     TMP    - TEMPERATURE IN FAHRENHEIT                   <
>     DP     - DEWPOINT IN FAHRENHEIT                      <
>     RH     - RELATIVE HUMIDITY IN PERCENT                <
>     WIND   - DIRECTION AND SPEED IN MPH                  <
>     PRES   - MEAN SEA LEVEL PRESSURE IN INCHES OF HG     <
>     WCI    - WIND CHILL INDEX                            <
>     VSB    - VISIBILITY IN MILES                         <
>     HX     - HEAT INDEX                                  <
>     TC     - TEMPERATURE IN CELSIUS                      <
>     VRB    - VARIABLE WIND DIRECTION                     <
>                                                          <
>>>>>>>>>>>>>>>>>>>>>>>>>>>> KEY <<<<<<<<<<<<<<<<<<<<<<<<<<<






USA.gov is the U.S. government's official web portal to all federal, state and local government web resources and services.